Location: Unspecified
(52.4292°N, 19.3359°E)
Time: 01:03:37
(UTC+02:00)

Altair - Pass Details

Date: 23 May 2024
Orbit: 1502 x 1682 km, 47.2° (Epoch: 20 June)

Event Time Altitude Azimuth Distance (km) Brightness Sun altitude
Rises 09:46:48 0° 206° (SSW) 4,797 10.1 44.1°
Reaches altitude 10° 09:50:19 10° 196° (SSW) 3,841 9.8 44.6°
Maximum altitude 09:58:31 31° 139° (SE) 2,591 10.4 45.7°
Drops below altitude 10° 10:06:54 10° 83° (E) 3,940 10.3 46.8°
Sets 10:10:32 0° 74° (ENE) 4,938 10.5 47.2°
